This demonstration page uses our WeatherBlox Daily Observations layout. Learn more.

Left ArrowRight Arrow

36.19886, -115.1175

Hourly Observations for September 26, 2022

Temp ( °F °C ) Dew Point ( °F °C ) Humidity (%) Winds ( mph kmh ) Pressure ( in mb ) Visibility ( mi km ) Precip ( " mm )
12:53 am 00:53 Clear 76 24.4 28 -2.2 17 17 NW 6 9 29.98 1015 10 16 0.00 0.00
1:53 am 01:53 Clear 77 25 27 -2.8 16 16 Calm 29.98 1015 10 16 0.00 0.00
2:53 am 02:53 Clear 74 23.3 29 -1.7 19 19 WNW 8 13 29.98 1015 10 16 0.00 0.00
3:53 am 03:53 Clear 73 22.8 29 -1.7 19 19 W 5 7 29.98 1015 10 16 0.00 0.00
4:53 am 04:53 Clear 74 23.3 27 -2.8 17 17 Calm 29.98 1015 10 16 0.00 0.00
5:53 am 05:53 Clear 75 23.9 27 -2.8 17 17 W 6 9 29.99 1016 10 16 0.00 0.00
6:53 am 06:53 Sunny 72 22.2 27 -2.8 19 19 Calm 30.02 1017 10 16 0.00 0.00
7:53 am 07:53 Sunny 77 25 27 -2.8 16 16 Calm 30.03 1017 10 16 0.00 0.00
8:53 am 08:53 Sunny 84 28.9 27 -2.8 12 12 NNW 8 13 30.04 1017 10 16 0.00 0.00
9:53 am 09:53 Sunny 88 31.1 27 -2.8 11 11 NNW 9 15 30.04 1017 10 16 0.00 0.00
10:53 am 10:53 Sunny 91 32.8 28 -2.2 10 10 VRB 5 7 30.04 1017 10 16 0.00 0.00
11:53 am 11:53 Sunny 93 33.9 27 -2.8 9 9 ESE 5 7 30.01 1016 10 16 0.00 0.00
12:53 pm 12:53 Sunny 95 35 27 -2.8 9 9 undefined N/A 29.99 1016 10 16 0.00 0.00
1:53 pm 13:53 Sunny 97 36.1 28 -2.2 9 9 VRB 6 9 29.96 1015 10 16 0.00 0.00
2:53 pm 14:53 Sunny 99 37.2 28 -2.2 8 8 Calm 29.94 1014 10 16 0.00 0.00
3:53 pm 15:53 Sunny 99 37.2 29 -1.7 9 9 SE 9 15 29.93 1013 10 16 0.00 0.00
4:53 pm 16:53 Sunny 97 36.1 29 -1.7 9 9 VRB 3 6 29.91 1013 10 16 0.00 0.00
5:53 pm 17:53 Sunny 96 35.6 30 -1.1 10 10 ESE 3 6 29.91 1013 10 16 0.00 0.00
6:53 pm 18:53 Clear 93 33.9 29 -1.7 10 10 Calm 29.91 1013 10 16 0.00 0.00
7:53 pm 19:53 Clear 90 32.2 32 0 13 13 NW 3 6 29.92 1013 10 16 0.00 0.00
8:53 pm 20:53 Clear 86 30 32 0 14 14 NNW 8 13 29.93 1013 10 16 0.00 0.00
9:53 pm 21:53 Clear 82 27.8 30 -1.1 15 15 NW 6 9 29.94 1014 10 16 0.00 0.00
10:53 pm 22:53 Clear 80 26.7 32 0 17 17 NNW 3 6 29.95 1014 10 16 0.00 0.00
11:53 pm 23:53 Clear 79 26.1 34 1.1 20 20 WNW 6 9 29.94 1014 10 16 0.00 0.00

Powered by AerisWeather